Probability
0 0 0 0 0 0 0 0 0 0 6 3 6 6 6 13 16 29 39 48 58 55 68 71 68 71 71 65 68 65 68 65 65 65 61 61 65 65 71 65 45 48 45 42
0 0 0 0 0 0 0 0 0 3 3 3 3 10 13 13 16 29 35 39 52 65 71 65 68 71 71 71 71 68 68 65 65 61 61 61 61 71 65 61 58 55 42 42
0 0 0 0 0 0 0 0 0 3 3 0 6 10 16 19 19 29 32 48 45 58 61 65 65 61 68 71 68 68 61 61 61 61 61 65 58 58 58 52 55 52 52 48
0 0 0 0 0 0 0 3 3 6 6 10 13 6 13 19 23 29 29 48 48 45 55 55 58 61 68 68 65 61 61 61 65 61 61 65 58 58 58 55 52 52 52 42
0 0 0 0 0 0 0 3 3 6 10 6 3 6 13 23 16 35 35 45 45 45 39 42 52 61 65 58 61 61 61 61 61 61 68 65 65 58 55 58 48 42 42 39
0 0 0 0 0 0 0 6 6 6 6 6 3 6 10 16 23 32 35 39 42 42 48 48 52 61 61 58 61 61 61 61 61 65 68 65 61 58 52 61 45 42 29 32
0 0 0 0 3 3 3 13 6 6 6 6 6 6 6 19 23 32 35 39 42 45 48 55 52 55 61 61 61 61 65 68 65 65 68 68 68 55 52 42 35 35 26 32
0 0 0 0 6 10 16 19 6 6 6 10 10 6 10 23 32 39 35 39 42 45 52 58 61 61 68 65 65 65 65 65 61 61 61 48 65 55 52 42 39 35 26 26
0 0 10 0 0 0 10 13 6 6 6 10 6 13 19 23 32 39 45 39 39 48 52 65 68 68 68 68 65 61 65 61 61 61 65 61 61 55 45 42 32 29 26 26
0 0 0 3 3 0 0 3 3 3 6 6 16 16 23 26 29 39 48 42 45 48 58 61 68 71 71 61 61 61 61 61 61 61 61 58 55 42 35 26 23 23 16 19
3 3 3 3 6 0 0 0 3 3 3 10 13 13 19 35 35 39 35 42 45 55 58 65 65 68 65 61 61 61 61 58 58 52 48 52 45 39 32 35 29 26 26 26
3 0 6 3 3 3 3 6 3 3 10 10 13 19 26 29 35 42 42 48 45 45 48 52 52 48 55 58 58 61 55 55 42 42 48 42 32 29 13 13 10 6 10 10
0 0 0 3 3 3 3 6 6 6 13 10 16 23 26 26 29 39 39 48 48 45 52 52 48 52 52 48 48 48 55 52 45 35 42 32 32 35 29 13 3 0 3 3
0 0 0 0 3 3 3 6 3 6 6 13 16 23 23 29 26 42 45 42 45 45 45 48 52 48 45 48 55 52 48 42 39 35 35 35 39 29 32 29 13 13 3 0
0 0 0 0 0 0 3 3 3 10 10 6 10 16 26 32 35 42 42 39 35 39 42 42 42 42 48 42 39 39 32 35 39 35 26 26 23 29 26 19 16 16 13 0
0 0 0 0 0 0 3 6 6 13 6 3 10 26 29 32 32 35 39 39 39 35 39 39 39 42 35 35 39 39 32 16 26 23 29 19 10 16 16 10 13 13 16 16
0 0 3 3 3 3 0 0 3 3 6 6 10 19 23 29 29 35 29 32 39 35 35 35 32 29 32 39 32 23 23 16 10 13 16 13 10 10 16 10 13 16 16 13
3 6 3 3 3 3 3 0 0 6 10 13 13 13 16 26 32 35 39 32 29 32 29 32 26 29 26 23 26 10 13 13 16 16 19 23 10 10 6 6 10 13 16 13
6 6 3 3 3 3 0 0 6 6 10 13 13 16 19 29 32 32 39 35 35 29 26 26 16 23 16 13 10 19 6 13 10 16 16 13 13 10 3 3 6 10 13 6
3 3 3 3 6 6 10 13 6 6 6 10 23 19 23 26 35 35 39 35 32 26 16 16 13 16 16 16 6 10 6 6 6 10 10 10 10 10 6 6 10 13 13 16
0 0 0 3 3 6 10 6 3 3 6 10 19 26 29 29 29 32 35 26 26 19 13 3 16 16 13 10 0 6 6 6 6 13 6 6 6 10 10 6 6 10 10 13
0 0 0 0 0 0 6 6 6 3 6 10 13 19 23 26 29 26 26 19 13 6 10 6 10 10 6 3 6 3 10 6 10 6 6 3 3 3 6 6 6 6 10 10
3 0 3 3 3 0 6 6 3 10 10 16 16 23 10 13 10 13 16 16 13 0 3 6 0 0 0 0 10 3 6 6 10 3 3 3 3 6 3 6 6 6 10 10
3 6 6 3 3 3 10 6 6 10 10 13 10 6 10 10 10 16 10 3 3 0 6 0 0 0 0 6 10 13 10 6 10 6 3 3 3 3 3 6 6 10 13 13
6 6 0 0 0 3 6 16 10 10 6 10 3 6 3 6 10 10 3 3 0 0 3 0 0 0 0 10 10 13 10 10 3 6 3 3 3 3 3 6 10 13 13 13
6 3 0 6 6 3 0 0 3 3 3 3 3 6 6 3 3 3 10 6 0 0 6 3 3 0 3 10 10 13 3 3 3 6 6 6 6 6 3 3 10 13 13 13
3 3 6 0 0 0 0 0 3 3 3 3 6 6 6 6 6 3 3 3 6 3 3 3 3 3 3 3 6 10 10 6 6 6 6 6 6 6 3 3 3 10 10 10
Height
5858 5860 5862 5864 5866 5867 5868 5870 5873 5874 5875 5874 5873 5872 5873 5873 5872 5873 5873 5873 5875 5875 5876 5876 5876 5877 5877 5877 5877 5877 5877 5876 5875 5875 5874 5873 5872 5871 5870 5869 5868 5866 5865 5864
5849 5852 5855 5857 5858 5861 5863 5864 5866 5866 5867 5868 5866 5867 5866 5867 5866 5866 5866 5867 5869 5870 5870 5871 5871 5872 5872 5872 5872 5872 5872 5871 5871 5870 5869 5868 5867 5866 5864 5863 5862 5861 5860 5858
5841 5845 5847 5850 5853 5855 5856 5858 5859 5860 5861 5859 5859 5860 5860 5860 5860 5861 5861 5862 5863 5864 5863 5864 5865 5866 5867 5867 5867 5867 5866 5866 5865 5865 5864 5863 5862 5861 5859 5858 5857 5856 5855 5853
5834 5837 5838 5844 5846 5848 5848 5850 5851 5851 5852 5852 5853 5854 5854 5853 5852 5853 5855 5856 5856 5857 5856 5857 5858 5860 5861 5861 5861 5861 5861 5861 5860 5859 5858 5857 5856 5856 5854 5853 5851 5850 5849 5847
5827 5828 5830 5835 5838 5840 5841 5841 5843 5844 5845 5846 5846 5848 5847 5845 5845 5845 5848 5849 5849 5849 5850 5850 5852 5853 5854 5855 5855 5856 5855 5855 5854 5854 5853 5852 5851 5850 5849 5847 5846 5844 5843 5841
5818 5820 5824 5828 5830 5831 5833 5832 5834 5836 5837 5838 5838 5839 5839 5839 5838 5839 5841 5842 5842 5843 5844 5845 5846 5847 5848 5849 5849 5849 5849 5849 5848 5848 5847 5846 5845 5844 5843 5842 5840 5838 5836 5834
5809 5811 5815 5818 5821 5823 5825 5824 5825 5826 5827 5828 5829 5830 5830 5831 5832 5833 5833 5834 5835 5836 5837 5838 5838 5840 5841 5842 5842 5842 5842 5842 5842 5841 5841 5840 5839 5838 5837 5836 5834 5832 5830 5828
5801 5802 5807 5809 5811 5813 5814 5814 5815 5816 5817 5819 5820 5821 5821 5823 5825 5826 5826 5826 5828 5829 5830 5831 5832 5834 5834 5835 5835 5835 5835 5835 5835 5834 5834 5833 5833 5832 5830 5829 5827 5825 5823 5821
5792 5794 5796 5798 5801 5802 5804 5805 5806 5807 5809 5810 5811 5812 5813 5815 5816 5817 5818 5819 5820 5822 5823 5824 5825 5826 5827 5827 5828 5828 5828 5828 5828 5827 5827 5827 5826 5825 5823 5822 5820 5818 5816 5814
5781 5783 5785 5787 5790 5792 5794 5795 5795 5797 5798 5800 5801 5803 5804 5806 5808 5809 5809 5811 5813 5814 5815 5817 5818 5818 5819 5820 5820 5821 5821 5821 5821 5820 5820 5819 5819 5818 5817 5815 5813 5811 5808 5806
5771 5773 5774 5776 5778 5780 5782 5784 5785 5785 5787 5789 5790 5793 5795 5797 5799 5800 5802 5803 5805 5806 5808 5809 5810 5811 5812 5812 5813 5813 5814 5814 5813 5813 5812 5812 5812 5811 5810 5808 5806 5804 5802 5800
5760 5761 5762 5765 5767 5770 5772 5773 5774 5775 5777 5779 5781 5783 5785 5787 5788 5790 5793 5794 5796 5798 5799 5801 5802 5803 5803 5804 5805 5805 5806 5806 5806 5805 5805 5805 5804 5803 5802 5800 5798 5796 5794 5792
5748 5749 5750 5753 5756 5758 5761 5763 5764 5765 5768 5770 5772 5774 5776 5778 5779 5781 5783 5785 5787 5789 5790 5792 5793 5794 5795 5796 5797 5797 5797 5798 5797 5797 5797 5797 5796 5795 5794 5792 5791 5789 5787 5785
5737 5738 5740 5743 5745 5747 5749 5751 5753 5755 5758 5760 5761 5764 5766 5768 5770 5772 5774 5776 5778 5780 5781 5783 5784 5786 5787 5788 5788 5789 5789 5789 5789 5788 5788 5788 5787 5786 5785 5784 5783 5781 5780 5778
5726 5727 5729 5730 5732 5735 5737 5739 5742 5745 5748 5750 5752 5754 5756 5758 5760 5762 5764 5766 5768 5770 5772 5773 5775 5777 5778 5779 5779 5780 5780 5780 5780 5780 5780 5779 5778 5777 5776 5775 5774 5772 5771 5770
5715 5716 5718 5719 5721 5724 5726 5729 5731 5734 5737 5739 5740 5743 5745 5747 5750 5752 5754 5756 5758 5760 5762 5764 5766 5767 5768 5769 5769 5770 5770 5770 5771 5771 5771 5770 5770 5769 5768 5766 5765 5764 5763 5762
5705 5706 5708 5709 5711 5714 5716 5718 5721 5723 5726 5728 5729 5732 5734 5737 5739 5742 5744 5745 5748 5750 5752 5754 5756 5757 5759 5760 5761 5761 5761 5762 5762 5762 5762 5762 5761 5760 5759 5758 5757 5756 5754 5753
5696 5697 5698 5699 5701 5704 5706 5709 5711 5713 5715 5717 5719 5721 5724 5726 5729 5731 5733 5735 5737 5739 5742 5744 5746 5748 5749 5750 5750 5751 5751 5752 5753 5753 5753 5753 5752 5751 5750 5750 5749 5748 5746 5745
5686 5687 5689 5690 5692 5694 5697 5699 5701 5703 5704 5706 5709 5711 5714 5716 5718 5721 5723 5725 5727 5729 5732 5734 5736 5737 5738 5740 5741 5741 5741 5742 5743 5744 5744 5744 5743 5742 5742 5741 5740 5739 5737 5736
5678 5679 5680 5682 5683 5685 5687 5689 5691 5692 5694 5696 5699 5701 5704 5706 5708 5710 5712 5714 5717 5719 5722 5724 5725 5727 5728 5730 5730 5731 5731 5732 5733 5734 5734 5734 5734 5734 5733 5733 5732 5731 5730 5729
5671 5671 5672 5674 5675 5676 5678 5680 5682 5684 5685 5688 5690 5692 5694 5697 5699 5700 5702 5705 5707 5710 5711 5713 5715 5717 5718 5719 5720 5721 5721 5722 5723 5724 5724 5725 5725 5724 5724 5724 5723 5723 5722 5721
5663 5664 5665 5666 5667 5668 5670 5672 5674 5675 5678 5680 5682 5684 5686 5688 5690 5691 5693 5696 5698 5700 5702 5704 5705 5707 5708 5709 5710 5710 5711 5712 5713 5714 5714 5715 5715 5715 5715 5715 5714 5714 5714 5713
5656 5657 5658 5659 5660 5661 5663 5664 5666 5668 5670 5672 5674 5676 5678 5680 5681 5683 5685 5687 5689 5691 5693 5694 5696 5698 5699 5699 5700 5701 5702 5703 5704 5704 5705 5705 5705 5705 5706 5706 5706 5705 5705 5704
5650 5651 5651 5652 5654 5655 5657 5658 5660 5661 5663 5665 5667 5669 5670 5672 5674 5675 5677 5679 5680 5682 5684 5686 5687 5688 5689 5690 5691 5691 5692 5693 5693 5694 5694 5695 5695 5696 5696 5696 5697 5697 5696 5695
5644 5645 5646 5646 5648 5649 5651 5652 5654 5655 5657 5659 5660 5662 5664 5665 5667 5668 5669 5670 5672 5673 5675 5676 5677 5678 5679 5680 5681 5682 5682 5683 5684 5684 5684 5685 5686 5687 5687 5687 5687 5687 5687 5686
5639 5640 5640 5641 5642 5643 5645 5646 5648 5650 5651 5652 5654 5655 5657 5658 5659 5660 5661 5662 5664 5665 5666 5667 5668 5669 5670 5670 5671 5672 5673 5673 5674 5674 5676 5677 5677 5678 5678 5678 5678 5678 5678 5677
5634 5635 5636 5636 5637 5638 5639 5641 5642 5643 5645 5646 5647 5649 5650 5651 5652 5653 5654 5655 5655 5657 5658 5659 5660 5660 5661 5661 5662 5662 5663 5664 5665 5666 5667 5668 5669 5669 5670 5670 5670 5669 5669 5668
Wind_Speed
27 26 24 25 26 25 24 25 25 24 26 26 26 24 24 25 24 24 23 21 21 21 20 20 20 20 19 18 18 19 19 20 20 20 21 21 21 21 21 22 22 22 24 24
30 27 25 25 25 24 24 25 27 26 26 26 27 26 26 26 26 24 23 22 23 24 23 22 22 21 20 20 20 20 21 21 22 22 21 21 21 22 21 21 22 23 23 23
30 28 28 28 26 25 26 26 28 29 29 27 27 25 25 28 28 28 27 26 25 25 25 25 23 23 21 21 21 22 23 23 23 23 22 22 22 21 21 22 22 23 23 24
31 29 30 29 27 26 26 26 27 27 27 28 27 26 28 30 29 28 28 27 27 26 26 25 24 23 23 23 23 23 23 23 24 23 22 22 22 22 22 22 23 23 23 24
31 30 30 28 28 27 27 29 28 28 28 28 29 29 30 32 31 30 29 29 29 28 27 27 26 25 25 25 25 25 24 24 24 23 23 22 22 22 23 23 23 24 25 25
33 33 31 31 29 27 29 32 31 30 31 31 31 31 31 32 32 29 29 28 29 29 29 29 28 27 28 28 27 26 25 25 24 24 23 23 23 23 24 24 25 25 25 26
33 34 33 33 30 30 31 33 33 33 33 32 32 32 32 32 31 30 30 30 29 30 30 28 27 27 27 27 27 26 25 25 24 24 24 24 24 24 24 25 25 26 26 26
33 35 36 34 31 32 32 33 36 34 33 33 33 33 33 32 31 31 31 31 30 30 29 28 28 27 27 27 27 26 26 25 26 25 25 25 25 26 26 26 26 27 26 27
33 35 36 35 36 34 33 34 36 36 35 34 34 35 34 32 31 32 31 30 30 30 29 29 29 28 27 27 27 26 26 25 26 26 27 27 27 27 27 27 28 28 27 28
36 38 37 35 34 36 36 37 36 36 36 35 35 34 34 34 32 32 31 31 31 31 29 29 29 29 28 27 27 27 27 27 27 27 27 28 27 28 28 28 28 28 27 28
38 38 38 38 37 36 36 37 38 37 37 37 36 36 36 36 34 33 32 33 31 30 30 29 29 29 28 28 28 28 28 27 28 28 28 28 28 28 28 29 29 29 29 30
37 39 39 39 38 37 37 38 38 37 38 38 37 37 37 35 34 34 33 32 32 32 32 31 30 30 29 29 29 30 30 29 29 29 29 29 29 29 29 30 30 30 30 30
38 37 38 38 39 39 39 37 38 39 38 37 37 37 37 36 35 35 33 32 32 33 32 31 31 31 30 30 30 30 30 30 30 31 30 30 30 30 30 30 30 30 30 30
35 35 36 37 38 38 39 39 40 40 38 37 36 37 36 35 34 35 35 34 34 33 33 32 32 32 32 31 31 31 31 31 31 30 30 30 31 30 30 30 30 30 30 30
37 36 37 36 36 37 38 39 40 39 38 37 37 36 35 34 34 35 35 35 34 33 33 33 33 33 33 32 32 31 32 31 31 30 30 31 31 31 31 31 31 31 31 29
35 36 37 36 36 36 37 38 38 37 37 37 37 36 35 35 35 34 34 34 35 34 34 33 34 34 34 33 33 33 32 32 32 32 31 31 31 31 30 30 31 31 29 28
34 35 36 36 35 36 36 36 36 35 36 36 35 35 35 35 35 35 34 34 35 35 35 34 34 34 34 33 33 33 33 33 32 31 31 30 30 30 30 30 30 30 29 28
32 32 32 33 34 35 34 34 35 35 35 35 36 36 35 35 35 35 35 34 34 35 34 34 34 34 33 33 33 34 33 32 32 31 31 30 30 31 31 31 31 31 31 31
30 31 31 32 32 33 35 34 34 34 34 34 34 34 34 34 34 35 35 35 34 34 34 34 34 34 34 34 34 34 34 33 33 32 31 31 30 31 31 31 31 30 29 29
27 28 29 30 31 32 33 33 32 32 32 32 32 32 32 32 32 33 33 33 33 33 33 33 34 35 34 34 35 34 34 33 33 33 32 32 32 31 29 30 30 29 28 28
27 27 27 27 27 29 30 31 32 31 31 31 31 30 31 31 32 32 32 32 32 32 33 33 34 34 34 33 33 33 33 33 33 33 33 32 32 31 30 29 29 29 29 29
24 24 25 25 26 26 27 28 28 29 29 29 29 29 30 30 30 31 31 31 31 31 32 32 32 32 32 33 33 33 32 32 33 33 33 32 31 31 30 29 29 29 29 29
22 22 23 24 24 24 24 25 26 27 28 28 28 28 28 28 29 30 29 30 31 31 32 32 31 31 32 32 33 32 32 32 32 32 32 30 29 29 28 28 28 28 28 28
21 20 20 21 22 23 23 22 23 24 25 26 26 26 27 28 28 29 29 29 30 30 31 31 32 32 31 31 31 31 31 30 30 30 30 30 29 29 29 29 28 28 28 28
19 19 19 19 20 21 21 22 23 23 23 23 24 24 25 25 25 26 27 27 27 28 28 29 29 29 29 29 29 29 29 29 29 29 28 28 28 28 28 28 28 28 28 29
18 17 17 17 18 19 20 20 21 22 23 23 24 24 25 25 25 25 26 26 25 26 27 27 27 28 28 29 28 28 28 27 27 27 27 27 27 27 27 27 28 28 28 28
17 17 17 17 17 17 18 19 21 21 21 21 22 23 23 23 23 24 24 25 25 25 26 26 26 26 27 27 27 27 26 26 25 26 26 26 26 26 26 27 28 28 28 29
Wind_Direction
234 238 240 243 246 246 246 247 248 253 253 254 259 260 263 264 267 267 264 268 268 267 266 268 269 269 271 273 277 281 283 286 289 290 292 293 293 294 293 293 293 293 294 294
237 238 240 244 247 248 250 251 248 249 253 254 257 257 262 264 267 268 264 263 265 266 266 265 265 266 268 272 277 280 283 285 287 289 290 291 291 292 293 292 293 293 294 294
240 241 242 245 247 251 251 251 250 250 250 254 258 260 262 263 264 266 267 268 267 265 264 262 263 263 267 271 275 280 282 285 287 287 287 288 290 292 295 294 294 293 294 295
243 244 244 243 246 248 250 251 250 254 259 256 257 260 264 263 264 265 265 265 265 263 263 261 260 261 263 270 274 277 281 284 286 286 287 290 290 290 294 294 294 294 294 295
244 247 250 250 249 248 250 253 251 250 252 256 256 258 259 263 264 266 265 265 265 262 261 262 261 261 264 268 272 275 279 281 283 283 285 287 288 289 293 295 294 294 294 294
246 247 248 248 250 248 248 251 251 252 253 254 256 256 257 261 265 266 265 264 264 264 265 264 262 263 265 268 272 276 277 277 278 279 281 284 286 288 291 294 296 294 294 294
248 249 250 250 252 250 251 253 253 253 255 256 254 257 258 259 263 266 264 263 264 265 266 264 265 268 269 270 272 274 274 274 275 277 278 281 283 286 289 291 293 296 295 295
249 248 248 248 249 248 249 252 254 255 255 254 254 256 257 259 262 263 261 263 263 263 264 264 265 266 268 269 271 272 273 273 274 275 278 280 282 285 287 289 291 294 295 295
247 248 250 250 248 248 248 251 255 257 257 256 255 255 257 258 260 261 258 260 260 262 262 263 263 264 266 267 269 271 272 274 276 277 279 281 284 286 287 288 290 292 294 297
245 248 250 250 250 250 249 250 255 256 256 254 254 255 256 256 257 257 259 260 261 262 261 263 265 266 266 267 268 270 272 273 276 279 280 282 284 286 289 290 290 293 294 296
248 249 249 247 248 248 249 251 254 256 255 253 254 255 256 256 256 257 258 259 260 260 261 262 263 265 266 267 269 270 272 274 276 278 280 282 284 287 289 290 288 289 290 294
250 251 251 249 248 248 249 251 254 255 255 255 255 256 256 257 257 255 256 256 258 259 259 260 262 264 264 264 266 269 271 272 274 276 278 281 283 285 287 289 289 289 290 292
251 251 252 251 251 250 251 254 254 254 255 255 256 257 258 257 256 257 257 257 256 258 259 260 261 263 264 266 267 269 270 272 273 275 276 279 281 283 285 286 287 288 290 291
252 253 254 253 252 252 252 253 254 255 255 256 255 256 256 255 254 254 255 255 256 257 258 259 260 262 265 267 267 268 269 270 271 273 277 279 280 281 282 284 284 285 288 289
253 253 254 254 252 252 252 252 253 254 254 255 255 255 256 255 254 254 254 254 254 255 256 258 260 261 264 265 266 266 267 268 271 274 276 278 279 280 282 283 283 283 285 287
254 253 254 255 253 252 251 251 252 252 252 252 253 254 255 254 255 255 256 256 254 254 256 258 260 261 263 264 265 268 267 268 271 274 277 277 279 280 282 282 281 282 283 285
256 255 255 256 253 251 251 250 250 252 252 251 253 255 254 254 254 254 255 255 254 254 255 257 260 262 264 264 265 266 267 269 271 272 274 277 278 279 279 278 279 280 281 283
257 256 256 257 254 250 249 250 252 253 252 252 254 254 253 252 252 252 254 254 253 253 255 257 259 261 262 263 265 266 268 270 271 274 274 275 277 278 278 278 279 280 282 284
258 256 255 254 252 250 251 252 253 253 253 254 254 253 254 254 253 253 254 254 253 254 256 257 259 261 261 262 264 266 268 269 269 272 273 274 276 278 278 278 278 280 282 283
258 256 256 253 251 250 251 251 252 252 252 252 252 252 253 253 253 255 255 254 254 255 256 258 260 261 260 261 263 265 266 267 268 269 270 272 274 275 276 277 277 279 281 282
259 257 255 253 252 250 250 250 250 251 252 252 251 252 252 252 254 255 256 255 254 255 257 259 260 261 261 262 264 265 265 266 266 267 269 272 272 272 273 275 277 280 281 283
260 257 255 254 255 253 250 248 249 250 251 250 250 252 252 252 253 254 255 255 255 255 256 259 261 261 262 264 264 263 263 264 265 267 270 272 271 271 272 275 277 279 280 283
259 257 254 254 253 252 250 248 248 249 249 249 249 252 254 255 254 254 254 254 255 255 257 259 261 262 264 264 264 263 262 263 265 266 268 269 271 271 273 275 276 278 281 283
260 257 255 253 252 251 250 250 248 246 248 249 249 251 253 254 254 256 257 257 257 258 259 259 261 263 264 265 265 264 263 264 265 266 266 267 270 272 273 273 275 277 279 282
257 258 257 255 253 251 250 250 249 248 250 252 251 250 252 253 254 256 257 258 258 257 258 260 262 263 263 264 265 266 266 266 266 267 267 267 269 271 272 272 274 276 280 283
257 257 258 257 257 254 252 251 251 251 253 254 253 251 251 253 256 257 258 258 258 259 260 261 262 264 264 265 266 266 265 265 265 265 266 268 269 271 272 273 274 277 279 282
258 257 257 259 257 256 253 252 252 251 253 254 252 251 253 256 256 258 259 260 260 261 261 261 263 265 267 266 265 264 263 263 264 265 266 267 268 269 271 273 275 277 279 282